Regional Weather Roundup
Issued by NWS

Home | Current Version | Previous Version | Text Only | Print | Product List | Glossary Off
Versions: 1 2 3 4 5 6 7 8 9 10 11 12 13 14 15 16 17 18 19 20 21 22 23 24 25 26 27 28 29 30 31 32 33 34 35 36 37 38 39 40 41 42 43 44 45 46 47 48 49 50

000
ASUS43 KIND 252109
RWRIN

WEATHER ROUNDUP FOR INDIANA
NATIONAL WEATHER SERVICE INDIANAPOLIS IN
500 PM EDT SAT OCT 25 2014

NOTE: "FAIR" INDICATES FEW OR NO CLOUDS BELOW 12,000 FEET WITH NO
SIGNIFICANT WEATHER AND/OR OBSTRUCTIONS TO VISIBILITY.

* - STATION DOES NOT REPORT WEATHER SUCH AS PRECIPITATION OR FOG.

+ - STATION NOT QUALITY CONTROLLED BY THE NATIONAL WEATHER SERVICE.
    USE DATA WITH CAUTION...ESPECIALLY DEWPOINT AND RELATIVE
    HUMIDITY OBSERVATIONS.

INZ001>003-010>013-019-020-252200-
NORTHWEST INDIANA

CITY           SKY/WX    TMP DP  RH WIND       PRES   REMARKS
GARY /AIRPORT/ MOSUNNY   75  32  20 W17G29    29.91F
KNOX *+        SUNNY     73  33  22 NW16G23   29.90S
LA PORTE +     SUNNY     71  38  29 W9G18     29.91F
MICHIGAN CITY+ SUNNY     68  36  30 W10       29.91F
MONTICELLO +   SUNNY     73  45  37 W13G20    29.91S
RENSSELAER +   SUNNY     73  36  25 W12G20    29.92F
VALPARAISO     SUNNY     72  36  26 W16G22    29.91S

$$

LMZ046-743>745-252200-
SOUTHERN LAKE MICHIGAN

STATION/POSITION TIME  TEMP WIND        PRES
                       AIR  DIR/SP/G
                 (UTC) (F)  (DEG/KT/KT) (MB)
MICHIGAN CITY    2100   63  220/  6/  7   N/A

$$

INZ004-005-014>016-021>024-252200-
NORTH CENTRAL INDIANA

CITY           SKY/WX    TMP DP  RH WIND       PRES   REMARKS
ELKHART        SUNNY     68  34  28 W14G29    29.90S
GOSHEN         SUNNY     67  35  30 NW20G28   29.88S
LOGANSPORT +   SUNNY     72  43  35 W8G17     29.91F
PERU/GRISSOM   SUNNY     71  52  51 W17       29.90F
ROCHESTER +    SUNNY     73  41  31 W12G22    29.90S
SOUTH BEND     SUNNY     70  37  30 W14       29.90
WARSAW +       SUNNY     68  32  26 NW20G26   29.89S

$$

INZ006>009-017-018-025>027-252200-
NORTHEAST INDIANA

CITY           SKY/WX    TMP DP  RH WIND       PRES   REMARKS
ANGOLA *+        N/A     66  59  77 NW10      29.85R
AUBURN +       SUNNY     68  32  26 W21G28    29.86S
FORT WAYNE     MOSUNNY   70  47  43 W14       29.88S
HUNTINGTON +   SUNNY    N/A N/A N/A W10G21    29.89S

$$

INZ028-029-035-036-043>045-051>053-252200-
WEST CENTRAL INDIANA

CITY           SKY/WX    TMP DP  RH WIND       PRES   REMARKS
CRAWFORDSVL +  SUNNY     73  43  33 W14G22    29.94
GREENCASTLE +  SUNNY     75  46  35 W6        29.95S
LAFAYETTE      SUNNY     72  48  42 W12       29.93S
TERRE HAUTE    SUNNY     78  44  29 NW8       29.96S

$$

INZ030>032-037>040-046>048-054>057-064-065-252200-
CENTRAL INDIANA

CITY           SKY/WX    TMP DP  RH WIND       PRES   REMARKS
CP ATTERBURY + SUNNY     75  50  41 W9        29.95R
FRANKFORT +    SUNNY     74  50  42 W13       29.94F
GREENWOOD *+   SUNNY     77  41  27 W14G20    29.94
INDIANAPOLIS   MOSUNNY   76  45  33 W21       29.93S
-EAGLE CREEK   SUNNY     76  44  32 NW13G28   29.92S
KOKOMO *+      SUNNY     70  52  52 W16       29.91F
MARION +       SUNNY     70  49  47 NW14      29.91F HAZE
MT COMFORT *+  SUNNY     75  27  16 W18G26    29.92F
SHELBYVILLE    SUNNY     77  48  35 W16       29.92S
ZIONSVILLE +   SUNNY     75  41  29 NW13G18   29.94S

$$

INZ033-034-041-042-049-050-058-059-252200-
EAST CENTRAL INDIANA

CITY           SKY/WX    TMP DP  RH WIND       PRES   REMARKS
MUNCIE         SUNNY     74  48  39 NW9       29.90R

$$

INZ060-061-067>069-081>083-085>088-252200-
SOUTHWEST INDIANA

CITY           SKY/WX    TMP DP  RH WIND       PRES   REMARKS
EVANSVILLE     SUNNY     79  51  37 NW6       29.98S
HUNTINGBURG *+ SUNNY     77  55  47 N10       29.98S
WASHINGTON +   SUNNY     77  54  44 W7        29.96F

$$

INZ062-063-066-070>080-084-089>092-252200-
SOUTH CENTRAL AND SOUTHEAST INDIANA

CITY           SKY/WX    TMP DP  RH WIND       PRES   REMARKS
BEDFORD +      SUNNY     75  50  41 W7        29.96
BLOOMINGTON    SUNNY     76  50  40 W8        29.97R
NORTH VERNON + SUNNY     75  54  46 W5        29.95

$$




USA.gov is the U.S. government's official web portal to all federal, state and local government web resources and services.